[TLELIST] Archives

 

Current TLEs

October 21st 2006 PDT

HST 1 20580U 90037B 06293.44268412 .00000477 00000-0 24343-4 0 7238 2 20580 028.4696 313.3248 0003635 078.0138 282.0862 15.00113309703922 ISS (ZARYA) 1 25544U 98067A 06294.47907604 .00014458 00000-0 90339-4 0 9022 2 25544 051.6332 256.7738 0013062 120.4953 339.8459 15.77061839453084 CXO 1 25867U 99040B 06292.00000000 +.00000397 +00000-0 +00000-0 0 09909 2 25867 060.4480 094.3354 5921314 288.5009 354.3313 00.37805311001345 ____________________________________________________________________ These 2-Line ...Continue Reading

Current TLEs

October 20th 2006 PDT

HST 1 20580U 90037B 06292.51125109 +.00000482 +00000-0 +24704-4 0 07350 2 20580 028.4698 319.3964 0003556 068.4335 291.6632 15.00112783703789 ISS (ZARYA) 1 25544U 98067A 06293.46431870 .00013144 00000-0 82648-4 0 8953 2 25544 051.6342 262.0095 0012879 116.8093 338.4765 15.77027343452929 CXO 1 25867U 99040B 06292.00000000 +.00000397 +00000-0 +00000-0 0 09909 2 25867 060.4480 094.3354 5921314 288.5009 354.3313 00.37805311001345 ____________________________________________________________________ These 2-Line ...Continue Reading

Current TLEs

October 19th 2006 PDT

HST 1 20580U 90037B 06291.44675594 +.00000494 +00000-0 +25656-4 0 07382 2 20580 028.4698 326.3355 0003549 057.0627 303.0301 15.00112190703627 ISS (ZARYA) 1 25544U 98067A 06292.45894382 .00015417 00000-0 96299-4 0 8897 2 25544 051.6330 267.1995 0012997 113.5575 030.1053 15.77003829452762 CXO 1 25867U 99040B 06292.00000000 +.00000397 +00000-0 +00000-0 0 09909 2 25867 060.4480 094.3354 5921314 288.5009 354.3313 00.37805311001345 ____________________________________________________________________ These 2-Line ...Continue Reading

Current TLEs

October 18th 2006 PDT

HST 1 20580U 90037B 06290.51532216 .00000502 00000-0 26343-4 0 7218 2 20580 028.4697 332.4066 0003553 047.0340 313.0548 15.00111621703485 ISS (ZARYA) 1 25544U 98067A 06291.49989741 .00009890 00000-0 63389-4 0 8829 2 25544 051.6340 272.1428 0013049 109.2461 346.0696 15.76964099452615 CXO 1 25867U 99040B 06289.37500000 +.00000327 +00000-0 +00000-0 0 09891 2 25867 060.4376 094.3870 5918950 288.5666 356.9117 00.37803563001339 ____________________________________________________________________ These 2-Line ...Continue Reading

Current TLEs

October 17th 2006 PDT

HST 1 20580U 90037B 06288.58592220 +.00000485 +00000-0 +24951-4 0 07418 2 20580 028.4695 344.9841 0003506 025.3844 334.6918 15.00110162703195 ISS (ZARYA) 1 25544U 98067A 06290.43321329 .00069281 00000-0 41660-3 0 8775 2 25544 051.6287 277.6576 0012724 105.7169 049.9060 15.76970725452442 CXO 1 25867U 99040B 06289.37500000 +.00000327 +00000-0 +00000-0 0 09891 2 25867 060.4376 094.3870 5918950 288.5666 356.9117 00.37803563001339 ____________________________________________________________________ These 2-Line ...Continue Reading

Current TLEs

October 16th 2006 PDT

HST 1 20580U 90037B 06289.25123277 .00000488 00000-0 25201-4 0 7204 2 20580 028.4695 340.6479 0003476 032.2460 327.8342 15.00110622703299 ISS (ZARYA) 1 25544U 98067A 06289.47959089 .00060576 00000-0 36541-3 0 8698 2 25544 051.6345 282.5697 0012785 101.6513 036.6504 15.76952697452298 CXO 1 25867U 99040B 06286.70833333 +.00000265 +00000-0 +00000-0 0 09883 2 25867 060.4275 094.4342 5916446 288.6471 353.8155 00.37800847001324 ____________________________________________________________________ These 2-Line ...Continue Reading

Current TLEs

October 15th 2006 PDT

HST 1 20580U 90037B 06287.58795569 .00000484 00000-0 24877-4 0 7199 2 20580 028.4692 351.4893 0003527 014.3152 345.7540 15.00109520703049 ISS (ZARYA) 1 25544U 98067A 06288.46528002 .00009845 00000-0 63295-4 0 8647 2 25544 051.6348 287.7957 0013213 098.2626 038.0083 15.76897941452131 CXO 1 25867U 99040B 06286.70833333 +.00000265 +00000-0 +00000-0 0 09883 2 25867 060.4275 094.4342 5916446 288.6471 353.8155 00.37800847001324 ____________________________________________________________________ These 2-Line ...Continue Reading

Current TLEs

October 14th 2006 PDT

HST 1 20580U 90037B 06286.52345757 .00000472 00000-0 23951-4 0 7180 2 20580 028.4691 358.4275 0003561 002.7786 357.2822 15.00108727702881 ISS (ZARYA) 1 25544U 98067A 06287.45436201 .00007966 00000-0 52071-4 0 8589 2 25544 051.6355 293.0101 0013178 095.0487 058.5539 15.76870229451974 CXO 1 25867U 99040B 06286.70833333 +.00000265 +00000-0 +00000-0 0 09883 2 25867 060.4275 094.4342 5916446 288.6471 353.8155 00.37800847001324 ____________________________________________________________________ These 2-Line ...Continue Reading

Current TLEs

October 13th 2006 PDT

HST 1 20580U 90037B 06285.59202109 +.00000470 +00000-0 +23803-4 0 07262 2 20580 028.4690 004.4988 0003547 351.8953 008.1579 15.00108124702744 ISS (ZARYA) 1 25544U 98067A 06286.43963706 .00006989 00000-0 46236-4 0 8525 2 25544 051.6351 298.2461 0013207 091.6940 057.7185 15.76850226451811 CXO 1 25867U 99040B 06286.70833333 +.00000265 +00000-0 +00000-0 0 09883 2 25867 060.4275 094.4342 5916446 288.6471 353.8155 00.37800847001324 ____________________________________________________________________ These 2-Line ...Continue Reading

Current TLEs

October 12th 2006 PDT

HST 1 20580U 90037B 06284.59405361 +.00000478 +00000-0 +24411-4 0 07327 2 20580 028.4681 011.0095 0003502 338.1279 021.9165 15.00107549702594 ISS (ZARYA) 1 25544U 98067A 06285.48979659 .00004568 00000-0 31676-4 0 8458 2 25544 051.6361 303.1440 0013201 088.4760 065.3897 15.76831973451669 CXO 1 25867U 99040B 06284.08333333 +.00000267 +00000-0 +00000-0 0 09878 2 25867 060.4105 094.4843 5916077 288.7224 356.3961 00.37802461001315 ____________________________________________________________________ These 2-Line ...Continue Reading
  • This mailing list is a public mailing list - anyone may join or leave, at any time.
  • This mailing list is announce-only.

International Space Station (ISS) / Hubble Space Telescope (HST) / Chandra X-Ray Observatory Orbital Data via EMAIL

Privacy Policy:

Private list